Torna al catalogo

FREGAT R/B

AttivoMEO
NORAD 39192·ROCKET BODY·🇷🇺 Russia

Lanciato Jun 25, 2013 da Guiana Space Centre

Loading…

Prossimi Passaggi (prossime 24 ore)

TLE

AggiornatoSource: Space-Track

Epoca: Sep 14, 2026, 12:28 UTC

1 39192U 13031E   26257.51952992 -.00000024  00000-0  00000-0 0  9993
2 39192   0.1664 350.8611 0008911 277.4528  91.5852  5.20984135251680

Traccia FREGAT R/B in tempo reale con AllMySat

Download on the App Store